www.pogodaiklimat.ru

Погода и климат >> Архив погоды >> Иран >> Eskandar Kola


ПОГОДА в Eskandar Kola

  • Прогноз погоды в Eskandar Kola
  • Монитор погоды в Eskandar Kola
  • Климат города

АРХИВ ПОГОДЫ в Eskandar Kola

Время (UTC), дата Ветер
(напр.,м/с)
 
Видим.   Явления Облачность Т
(С)
Тd
(С)
f
(%)
Тe
(С)
Тes
(С)
Комфортность P
(гПа)
Po
(гПа)
Тmin
(С)
Tmax
(С)
R
(мм)
R24
(мм)
S
(см)
09 12.11 С 5 10 км 9/1 1350 м
[Cu hum Cs]
+19.4 +9.6 53 +20 +23 1023.8 1022.0
12 12.11 СВ 4 10 км 6/0
[Cs]
+18.6 +8.0 50 +19 +20 1023.4 1021.6
15 12.11 В 2 10 км 6/0
[Cs]
+14.0 +10.1 77 +14 +14 1024.1 1022.3 +19.6
18 12.11 ЮВ 2 10 км 10/0
[As op]
+12.4 +10.9 91 +11 +11 1024.1 1022.3
21 12.11 штиль 0 10 км 9/0
[Ac As]
+11.6 +10.2 91 +11 +11 1024.1 1022.3
00 13.11 ЮВ 2 10 км 10/0
[As op]
+11.4 +9.8 90 +10 +10 1023.7 1022.0
03 13.11 Ю 2 8000 м слабый дождь 10/8 750 м
[Cb calv As op]
+12.0 +11.6 97 +11 +11 1024.0 1022.2 +11.4
06 13.11 штиль 0 8000 м дымка {дождь} 10/6 660 м
[St As op]
+13.6 +12.5 93 +13 +14 1025.3 1023.5 0.0
09 13.11 ЮЗ 3 8000 м дымка 10/6 800 м
[Sc As op]
+14.0 +12.1 88 +13 +13 1024.9 1023.1
12 13.11 штиль 0 8000 м дымка {дождь} 10/6 800 м
[Sc As op]
+13.6 +12.5 93 +13 +13 1025.1 1023.3 0.2
15 13.11 штиль 0 9000 м слабый дождь 10/5 800 м
[Sc As op]
+12.2 +11.0 92 +12 +12 1025.6 1023.8 +14.6
18 13.11 штиль 0 9000 м слабый дождь 10/5 800 м
[Sc As op]
+11.8 +10.6 92 +11 +11 1025.9 1024.1 1
21 13.11 штиль 0 10 км в посл. час дождь 10/5 900 м
[Sc As op]
+11.2 +10.8 97 +10 +10 1025.1 1023.3
00 14.11 штиль 0 10 км {дождь} 10/4 900 м
[Sc As op]
+11.2 +10.8 97 +10 +10 1024.6 1022.8 0.1
03 14.11 штиль 0 10 км 9/4 1000 м
[Sc Ac As]
+11.2 +10.8 97 +10 +10 1024.1 1022.3 +10.4
06 14.11 штиль 0 10 км 9/4 900 м
[Sc Ac As]
+13.8 +9.9 77 +13 +15 1025.7 1023.9
09 14.11 СЗ 2 10 км 9/4 900 м
[Sc Ac As]
+15.0 +13.2 89 +15 +16 1023.9 1022.1
12 14.11 штиль 0 10 км 9/4 900 м
[Sc Ac As]
+14.6 +12.0 84 +14 +15 1022.4 1020.6
15 14.11 штиль 0 10 км 9/4 900 м
[Sc Ac As]
+13.6 +11.7 88 +13 +13 1022.0 1020.2 +15.6
18 14.11 штиль 0 10 км 9/4 900 м
[Sc Ac As]
+12.8 +10.9 88 +12 +12 1022.0 1020.2
21 14.11 штиль 0 10 км 8/4 900 м
[Sc Ac As]
+13.0 +11.1 88 +12 +12 1022.0 1020.2
00 15.11 штиль 0 10 км 8/3 900 м
[Sc Ac As]
+12.6 +10.7 88 +12 +12 1020.6 1018.8
03 15.11 штиль 0 10 км 10/4 900 м
[Sc As op]
+12.2 +11.0 92 +12 +12 1021.1 1019.3 +11.0
06 15.11 штиль 0 10 км 10/5 900 м
[Sc As op]
+14.4 +12.6 89 +14 +15 1020.6 1018.8
09 15.11 штиль 0 10 км 8/3 1200 м
[Sc Ac trans Ci fib]
+17.4 +11.5 68 +17 +21 1020.1 1018.3
12 15.11 СВ 2 10 км 8/3 1200 м
[Sc Ac trans]
+16.4 +9.5 64 +17 +17 1019.9 1018.2
15 15.11 штиль 0 10 км 4/0
[Ac trans]
+12.2 +11.0 92 +12 +12 1020.7 1019.0 +17.8
18 15.11 штиль 0 10 км 4/0
[Ac trans]
+9.8 +8.1 89 +9 +9 1020.9 1019.2
21 15.11 штиль 0 10 км 3/0
[Ac trans]
+8.6 +7.3 92 +8 +8 1019.8 1018.0
00 16.11 штиль 0 10 км 3/0
[Ac trans]
+8.0 +6.7 91 +7 +7 1022.3 1019.2
03 16.11 штиль 0 10 км 4/0
[Ac trans]
+9.6 +8.8 95 +9 +9 1020.1 1018.3 +7.2
06 16.11 штиль 0 20 км 9/1 1200 м
[Sc As trans]
+13.2 +11.7 91 +13 +15 1019.3 1017.5
09 16.11 СЗ 2 15 км 5/1 900 м
[Cu hum Ac trans]
+18.2 +9.9 58 +19 +23 1018.8 1017.0
12 16.11 СЗ 2 15 км 4/4 1000 м
[Cu med, cong]
+18.0 +11.0 64 +19 +19 1019.5 1017.7
15 16.11 штиль 0 10 км 9/4 1050 м
[Sc Ac As]
+15.6 +12.7 83 +15 +15 1021.3 1019.5 +19.2
18 16.11 штиль 0 10 км 5/1 1050 м
[Sc Ac As]
+14.6 +12.8 89 +14 +14 1022.1 1020.3
21 16.11 штиль 0 10 км ясно +11.0 +9.4 90 +10 +10 1022.0 1019.3
00 17.11 штиль 0 10 км ясно +11.0 +9.0 87 +10 +10 1021.7 1019.9
03 17.11 штиль 0 20 км 1/0
[Ac trans]
+8.2 +7.8 97 +7 +7 1021.8 1020.0 +7.8
06 17.11 ЮЗ 2 10 км ясно +15.0 +10.8 76 +15 +18 1022.6 1020.8
09 17.11 СВ 2 10 км ясно +19.6 +11.6 60 +22 +28 комфорт 1020.9 1019.1
12 17.11 СВ 3 10 км 3/0
[Ci fib]
+18.4 +15.0 81 +19 +20 1020.7 1018.9
15 17.11 СВ 2 10 км 8/0
[Ac As]
+15.6 +14.2 91 +15 +15 1022.0 1020.2 +19.8
18 17.11 штиль 0 10 км 10/4 1050 м
[Sc As op]
+15.4 +13.2 87 +15 +15 1023.6 1021.8
21 17.11 штиль 0 10 км 9/4 1050 м
[Sc As op]
+15.0 +13.2 89 +15 +15 1023.1 1021.3
00 18.11 штиль 0 10 км 9/4 1050 м
[Sc As op]
+15.0 +13.2 89 +15 +15 1022.8 1021.0
03 18.11 штиль 0 10 км 10/4 900 м
[Sc As op]
+14.2 +13.5 96 +14 +14 1023.4 1021.6 +14.0
06 18.11 ЮЗ 3 10 км 9/0
[Ac As]
+17.2 +12.1 72 +17 +18 1023.4 1021.6
09 18.11 СЗ 4 10 км 9/4 900 м
[Cu med, cong Ac As]
+19.6 +12.5 64 +21 +22 комфорт 1021.7 1020.0
12 18.11 СЗ 4 10 км 10/8 750 м
[Cb calv As op]
+17.0 +13.8 81 +17 +17 1021.2 1019.5
15 18.11 штиль 0 10 км 10/5 750 м
[Cb calv As op]
+16.4 +15.4 94 +16 +16 1020.9 1019.2 +19.6
18 18.11 штиль 0 10 км 10/4 900 м
[Sc As op]
+14.0 +12.5 91 +14 +14 1021.2 1019.4
21 18.11 штиль 0 10 км 10/4 900 м
[Sc As op]
+14.0 +12.2 89 +14 +14 1021.2 1019.4
00 19.11 ЮЗ 3 10 км 10/4 900 м
[Sc As op]
+13.6 +12.1 91 +12 +12 1020.4 1018.7
03 19.11 З 2 10 км 10/5 750 м
[Cb calv As op]
+13.0 +11.9 93 +12 +12 1023.1 1021.3 +12.8
06 19.11 ЮЗ 2 5000 м дождь {морось} 10/8 540 м
[Cb calv As op]
+12.6 +12.2 97 +12 +12 1023.9 1022.1 0.7

 

Местоположение метеостанции Eskandar Kola (Иран): широта 36.45 долгота 52.82 высота над уровнем моря 14 м.

В архиве по умолчанию представлена погода в Eskandar Kola за последнюю неделю. Архивные данные за месяц целиком и за предыдущие месяцы, начиная с января 2011 года, Вы можете получить, выбрав интересующий диапазон дат из раскрывающегося списка и нажав кнопку "Ввод!".


*Определитесь, кто Вы:
робот инопланетянин человек

Внимание! Время в таблицах - всемирное. Для получения местного времени необходимо прибавить поправку, которая в Eskandar Kola равна 3.5 ч.

Смотрите также архив погоды в соседних городах и на ближайших метеорологических станциях:

Погода в Babolsar (Иран) (34 км)
Погода в Semnan (Иран) (112 км)
Погода в Noshahr (Иран) (120 км)
Погода в Gorgan (Иран) (137 км)
Погода в Эсенгулы (Балканский велаят, Туркменистан) (153 км)
Погода в Tehran (Иран) (160 км)
Погода в Shahrud (Иран) (191 км)
Погода в Ramsar (Иран) (198 км)
Погода в Гызылетреке (Балканский велаят, Туркменистан) (217 км)
Погода в Ghazvin (Иран) (254 км)

Пояснения к столбцам:

Ветер - указаны скорость ветра в м/с - средняя за 10 мин, порывы в срок и между сроками (в фигурных скобках) и направление, откуда дует ветер: С - северный, СВ - северо-восточный, В - восточный, ЮВ - юго-восточный, Ю - южный, ЮЗ - юго-западный, З - западный, СЗ - северо-западный.
Видимость - горизонтальная дальность видимости в метрах или километрах. При видимости от 1 до 10 км при отсутствии осадков обычно наблюдается дымка, при ухудшении видимости до 1 км и менее - туман. В сухую погоду видимость может ухудшаться дымом, пылью или мглою.
Явления - указаны атмосферные явления, наблюдавшиеся в срок или в последний час перед сроком; фигурными скобками обозначены явления, наблюдавшиеся между сроками (за 1-3 часа до срока); квадратными скобками обозначены град или гололедные отложения с указанием их диаметра в мм.
Облачность - указаны через наклонную черту общая и нижняя облачность в баллах и высота нижней границы облаков в метрах; квадратными скобками обозначены формы облаков: Ci - перистые, Cs - перисто-слоистые, Cc - перисто-кучевые, Ac - высококучевые, As - высокослоистые, Sc - слоисто-кучевые, Ns - слоисто-дождевые, Cu - кучевые, Cb - кучево-дождевые. Подробнее классификацию облаков см. в Атласе облаков (PDF).
T - Температура воздуха - температура, измеренная на высоте 2 м над землей.
Td - Температура точки росы - температура, при понижении до которой содержащийся в воздухе водяной пар достигнет насыщения.
f - Относительная влажность воздуха - влажноcть воздуха, измеренная на высоте 2 м над землей.
Te - Эффективная температура - температура, которую ощущает одетый по сезону человек в тени. Характеристика душности погоды. При расчете учитывается влияние влажности воздуха и скорости ветра на теплоощущения человека.
Tes - Эффективная температура на солнце - температура, которую ощущает человек, с поправкой на солнечный нагрев. Характеристика знойности погоды. Зависит от высоты солнца над горизонтом, облачности и скорости ветра. Ночью, в пасмурную погоду, а также при ветре 12 м/с и более поправка равна нулю.
P - Атмосферное давление - приведенное к уровню моря атмосферное давление.
Po - Атмосферное давление - измеренное на уровне метеостанции атмосферное давление.
Tmin - Минимальная температура - минимум температуры воздуха на высоте 2 м над землей.
Tmax - Максимальная температура - максимум температуры воздуха на высоте 2 м над землей.
R - Количество осадков - Количество выпавших осадков за период времени, мм. При наведении курсора мыши на число - период времени, за который выпало указанное количество осадков.
R24 - Количество осадков - Количество выпавших осадков за 24 часа, мм.
S - Снежный покров - Высота снежного покрова, см. При наведении курсора мыши на число - состояние снежного покрова и степень покрытия местности в баллах.